Weather History for Montauk, NY

Change the Weather History Date:

Sunday, December 4, 2011

  Actual Average (KHTO) Record (KHTO)
Temperature  
Mean Temperature 44 °F -  
Max Temperature 55 °F 45 °F 69 °F (1998)
Min Temperature 32 °F 30 °F 8 °F (1940)
Degree Days  
Heating Degree Days 22    
Moisture  
Dew Point 42 °F    
Average Humidity 81    
Maximum Humidity 93    
Minimum Humidity 68    
Precipitation  
Precipitation 0.00 in - - ()
Sea Level Pressure  
Sea Level Pressure 30.53 in    
Wind  
Wind Speed 2 mph (South)    
Max Wind Speed 8 mph    
Max Gust Speed -    
Averages and records for this station are not official NWS values.
T = Trace of Precipitation, MM = Missing Value Source: NWS Daily Summary

Daily Weather History Graph

Daily Weather History Graph

Search for Another Location

Airport:

Trip Planner

Search our weather history database for the weather conditions in past years. The results will help you decide how hot, cold, wet, or windy it might be!

Date:

Astronomy

Dec. 04, 2011 Rise Set
Actual Time 6:56 AM EST 4:19 PM EST
Civil Twilight 6:25 AM EST 4:50 PM EST
Nautical Twilight 5:51 AM EST 5:24 PM EST
Astronomical Twilight 5:17 AM EST 5:57 PM EST
Moon 12:50 PM EST (12/4) 1:16 AM EST (12/4)
Length of Visible Light 10h 24m
Length of Day
9h 23m
Waxing Gibbous, 71% of the Moon is Illuminated
Dec 4
Waxing Gibbous
Dec 10
Full
Dec 17
Last Quarter
Dec 24
New
Jan 1
First Quarter

Hourly Weather History & Observations

Time (EST) Temp. Windchill Dew Point Humidity Pressure Visibility Wind Dir Wind Speed Gust Speed Precip Events Conditions
12:54 AM 46.0 °F 44.8 °F 36.0 °F 68% 30.62 in - Variable 3.5 mph - N/A   Unknown
1:54 AM 46.0 °F 44.8 °F 37.0 °F 71% 30.62 in - SSE 3.5 mph - N/A   Unknown
2:54 AM 46.0 °F - 37.0 °F 71% 30.62 in - Calm Calm - N/A   Unknown
3:54 AM 35.1 °F - 30.9 °F 85% 30.60 in - Calm Calm - N/A   Unknown
4:54 AM 44.1 °F - 37.9 °F 79% 30.59 in - Calm Calm - N/A   Unknown
5:54 AM 33.1 °F - 30.0 °F 89% 30.60 in - Calm Calm - N/A   Unknown
6:54 AM 32.0 °F - 28.9 °F 88% 30.60 in - Calm Calm - N/A   Unknown
7:54 AM 39.0 °F - 37.0 °F 93% 30.59 in - Calm Calm - N/A   Unknown
8:54 AM 45.0 °F - 42.1 °F 90% 30.59 in - Calm Calm - N/A   Unknown
9:54 AM 51.1 °F - 43.0 °F 74% 30.59 in - Calm Calm - N/A   Unknown
10:54 AM 53.1 °F - 44.1 °F 71% 30.57 in - SSE 3.5 mph - N/A   Unknown
11:54 AM 54.0 °F - 45.0 °F 72% 30.54 in - Variable 4.6 mph - N/A   Unknown
12:54 PM 53.1 °F - 45.0 °F 74% 30.51 in - South 4.6 mph - N/A   Unknown
1:54 PM 55.0 °F - 46.0 °F 72% 30.49 in - South 5.8 mph - N/A   Unknown
2:54 PM 54.0 °F - 46.9 °F 77% 30.47 in - South 4.6 mph - N/A   Unknown
3:54 PM 53.1 °F - 46.9 °F 80% 30.47 in - SSW 3.5 mph - N/A   Unknown
4:54 PM 50.0 °F - 46.0 °F 86% 30.46 in - Calm Calm - N/A   Unknown
5:54 PM 43.0 °F - 39.0 °F 86% 30.46 in - Calm Calm - N/A   Unknown
6:54 PM 44.1 °F - 41.0 °F 89% 30.45 in - Calm Calm - N/A   Unknown
8:54 PM 53.1 °F - 50.0 °F 89% 30.44 in - SSW 4.6 mph - N/A   Unknown
9:54 PM 53.1 °F - 51.1 °F 93% 30.44 in - SSW 5.8 mph - N/A   Unknown
10:54 PM 54.0 °F - 50.0 °F 86% 30.43 in - SSW 8.1 mph - N/A   Unknown
11:54 PM 55.0 °F - 50.0 °F 83% 30.44 in - South 4.6 mph - N/A   Unknown